Flag for Colombia Weather past 2 weeks in Cartagena, Colombia

Now
75 °F

Thunderstorms. Mostly cloudy.


Feels Like: 74 °F
Forecast: 81 / 89 °F
Wind: 6 mph from Southeast

Location: Cartagena / Rafael Nunez

Current Time: Sep 2, 2014 at 7:43:55 PM

Latest Report: Sep 2, 2014 at 7:00 PM


Visibility: 4 mi

Pressure: 29.79 "Hg

Humidity: 94%

Dew point: 73 °F

Location of CartagenaLocation

Historic Weather in Cartagena — Graph

°F

Cartagena temperature yesterday

Maximum temperature yesterday: 93 °F (at 2:00 PM)
Minimum temperature yesterday: 81 °F (at 6:00 AM)
Average temperature yesterday: 86 °F

Past Weeks' High & Low Weather Summary

 TemperatureHumidityPressure
High102 °F (Aug 21, 8:00 AM)100% (Aug 24, 2:00 AM)30.72 "Hg (Aug 24, 2:00 AM)
Low77 °F (Aug 26, 8:00 AM)42% (Aug 21, 8:00 AM)29.71 "Hg (Sep 1, 4:00 PM)
Average84 °F79%29.83 "Hg
* Reported Aug 18 6:00 PM — Sep 2 6:00 PM, Cartagena, Weather by CustomWeather, © 2014

Note: Actual official high and low records may vary slightly from our data, if they occured in-between our weather recording intervals... More about our weather records

Advertising

Cartagena weather history for previous 24 hours

 ConditionsComfort  
Time TempWeatherWind HumidityBarometerVisibility
6:00 PM
Sep 2
86 °FThunderstorms. Scattered clouds.6 mph84%29.76 "HgN/A
5:00 PM88 °FScattered clouds.12 mph75%29.74 "HgN/A
4:00 PM90 °FPartly sunny.9 mph71%29.74 "HgN/A
3:00 PM90 °FBroken clouds.10 mph71%29.74 "HgN/A
2:00 PM91 °FBroken clouds.10 mph67%29.76 "HgN/A
1:00 PM91 °FBroken clouds.12 mph67%29.79 "HgN/A
12:00 PM91 °FOvercast.9 mph63%29.81 "HgN/A
11:00 AM90 °FPartly sunny.10 mph59%29.82 "HgN/A
10:00 AM90 °FPartly sunny.9 mph71%29.84 "HgN/A
9:00 AM88 °FOvercast.3 mph75%29.83 "Hg6 mi
8:00 AM86 °FPartly sunny.2 mph79%29.76 "Hg5 mi
7:00 AM82 °FBroken clouds.No wind89%29.73 "Hg6 mi
6:00 AM82 °FScattered clouds.5 mph89%29.72 "HgN/A
5:00 AM82 °FPassing clouds.5 mph89%29.72 "HgN/A
4:00 AM82 °FPassing clouds.5 mph89%29.71 "HgN/A
3:00 AM82 °FPassing clouds.5 mph89%29.72 "HgN/A
2:00 AM82 °FPassing clouds.5 mph89%29.72 "HgN/A
1:00 AM84 °FPassing clouds.5 mph84%29.74 "HgN/A
12:00 AM84 °FPassing clouds.7 mph84%29.77 "HgN/A
11:00 PM
Sep 1
84 °FPassing clouds.5 mph84%29.78 "HgN/A
10:00 PM84 °FPassing clouds.7 mph84%29.78 "HgN/A
9:00 PM84 °FPassing clouds.5 mph84%29.76 "HgN/A
8:00 PM84 °FPassing clouds.5 mph84%29.76 "HgN/A
7:00 PM86 °FPassing clouds.5 mph79%29.73 "HgN/A
Weather by CustomWeather, © 2014

See weather overviewHow to use our weather pages